Home   Weather   Telfs   Past weeks

Flag for Austria Past Weather in Telfs, Tyrol, Austria — Yesterday and Last 2 Weeks

Now
68 °F

Partly cloudy.


Feels Like: 68 °F
Forecast: 50 / 57 °F
Wind: 3 mph from North

Location: Innsbruck-Flughafen

Current Time: Oct 1, 2016 at 9:00:29 PM

Latest Report: Oct 1, 2016 at 8:20 PM


Visibility: N/A

Pressure: 29.92 "Hg (27.80 "Hg at 630m altitude)

Humidity: 46%

Dew Point: 46 °F

Location of TelfsLocation

Past Weather in Telfs — Graph

°F

Telfs Temperature Yesterday

Maximum temperature yesterday: 75 °F (at 3:50 PM)
Minimum temperature yesterday: 45 °F (at 6:20 AM)
Average temperature yesterday: 59 °F

High & Low Weather Summary for the Past Weeks

 TemperatureHumidityPressure
High75 °F (Sep 29, 4:20 PM)100% (Sep 17, 7:20 AM)30.48 "Hg (Sep 17, 7:20 AM)
Low45 °F (Sep 23, 6:20 AM)31% (Sep 26, 4:20 PM)29.86 "Hg (Sep 18, 12:50 PM)
Average57 °F77%30.14 "Hg
* Reported Sep 16 7:20 PM — Oct 1 7:50 PM, Telfs, Weather by CustomWeather, © 2016

Note: Actual official high and low records may vary slightly from our data, if they occured in-between our weather recording intervals... More about our weather records

Advertising

Telfs Weather History for the Previous 24 Hours

Scroll right to see more
 ConditionsComfort  
Time TempWeatherWind HumidityBarometerVisibility
7:50 PM
Sat, Oct 1
68 °FPassing clouds.3 mph46%29.92 "HgN/A
7:20 PM70 °FPassing clouds.9 mph43%29.89 "HgN/A
6:50 PM70 °FPartly sunny.8 mph43%29.89 "HgN/A
6:20 PM70 °FPartly sunny.10 mph40%29.86 "HgN/A
5:50 PM70 °FPartly sunny.9 mph43%29.86 "HgN/A
5:20 PM72 °FBroken clouds.13 mph38%29.86 "HgN/A
4:50 PM72 °FPartly sunny.14 mph38%29.86 "HgN/A
4:20 PM73 °FPartly sunny.16 mph36%29.86 "HgN/A
3:50 PM72 °FPartly sunny.15 mph38%29.86 "HgN/A
3:20 PM73 °FPartly sunny.10 mph36%29.86 "HgN/A
2:50 PM73 °FPartly sunny.9 mph36%29.89 "HgN/A
2:20 PM72 °FPartly sunny.10 mph36%29.89 "HgN/A
1:50 PM73 °FPartly sunny.13 mph36%29.89 "HgN/A
1:20 PM72 °FPartly sunny.3 mph44%29.92 "HgN/A
12:50 PM68 °FPartly sunny.12 mph56%29.92 "HgN/A
12:20 PM66 °FPartly sunny.12 mph60%29.95 "HgN/A
11:50 AM64 °FPartly sunny.10 mph64%29.95 "HgN/A
11:20 AM63 °FPartly sunny.12 mph68%29.95 "HgN/A
10:50 AM61 °FPartly sunny.13 mph68%29.98 "HgN/A
10:20 AM59 °FPartly sunny.10 mph72%29.98 "HgN/A
9:50 AM57 °FPartly sunny.9 mph77%29.98 "HgN/A
9:20 AM54 °FPartly sunny.8 mph88%29.98 "HgN/A
8:50 AM52 °FPartly sunny.7 mph88%29.98 "HgN/A
8:20 AM50 °FPartly sunny.7 mph88%29.98 "HgN/A
7:50 AM48 °FPartly sunny.2 mph94%29.98 "HgN/A
7:20 AM50 °FPartly sunny.3 mph88%29.98 "HgN/A
6:50 AM48 °FPassing clouds.3 mph94%29.98 "HgN/A
6:20 AM48 °FPassing clouds.2 mph87%29.98 "HgN/A
5:50 AM50 °FClear.2 mph88%29.98 "Hg10 mi
5:20 AM50 °FCool.2 mph88%29.98 "HgN/A
4:50 AM52 °FPassing clouds.3 mph88%29.98 "HgN/A
4:20 AM52 °FPassing clouds.3 mph88%30.01 "HgN/A
3:50 AM52 °FPassing clouds.3 mph88%30.01 "HgN/A
3:20 AM52 °FPassing clouds.2 mph88%30.01 "HgN/A
2:50 AM54 °FPassing clouds.2 mph88%30.01 "HgN/A
2:20 AM54 °FPassing clouds.2 mph88%30.01 "HgN/A
1:50 AM55 °FPassing clouds.3 mph82%30.01 "HgN/A
1:20 AM55 °FPassing clouds.3 mph82%30.04 "HgN/A
12:50 AM54 °FPassing clouds.2 mph88%30.04 "HgN/A
12:20 AM55 °FPassing clouds.2 mph82%30.04 "HgN/A
11:50 PM
Fri, Sep 30
55 °FPassing clouds.1 mph82%30.04 "HgN/A
11:20 PM55 °FPassing clouds.2 mph82%30.04 "HgN/A
10:50 PM55 °FPassing clouds.2 mph82%30.04 "HgN/A
10:20 PM59 °FPassing clouds.2 mph77%30.04 "HgN/A
9:50 PM59 °FPassing clouds.2 mph77%30.04 "HgN/A
9:20 PM59 °FPassing clouds.2 mph77%30.04 "HgN/A
Weather by CustomWeather, © 2016

See weather overviewHow to use our weather pages